Time,TemperatureF,DewpointF,PressureIn,WindDirection,WindDirectionDegrees,WindSpeedMPH,WindSpeedGustMPH,Humidity,HourlyPrecipIn,Conditions,Clouds,dailyrainin,SolarRadiationWatts/m^2,SoftwareType,DateUTC
2013-06-25 00:01:00,70.0,64.0,-100.00,SSW,209,8.0,16.0,82,0.00,,,0.00,0.000000,,2013-06-25 04:01:00,
2013-06-25 00:02:00,70.0,64.0,-100.00,SSW,209,8.0,16.0,82,0.00,,,0.00,0.000000,,2013-06-25 04:02:00,
2013-06-25 00:34:00,69.0,65.0,-100.00,ESE,104,1.0,11.0,87,0.00,,,0.00,0.000000,,2013-06-25 04:34:00,
2013-06-25 00:43:00,69.0,65.0,-100.00,ESE,104,1.0,11.0,87,0.00,,,0.00,0.000000,,2013-06-25 04:43:00,
2013-06-25 00:52:00,69.0,65.0,-100.00,ESE,104,1.0,11.0,87,0.00,,,0.00,0.000000,,2013-06-25 04:52:00,
2013-06-25 01:01:00,69.0,65.0,-100.00,ESE,104,1.0,11.0,87,0.00,,,0.00,0.000000,,2013-06-25 05:01:00,
2013-06-25 01:32:00,69.0,66.0,-100.00,South,170,4.0,6.0,89,0.00,,,0.00,0.000000,,2013-06-25 05:32:00,
2013-06-25 01:44:00,69.0,66.0,-100.00,South,170,4.0,6.0,89,0.00,,,0.00,0.000000,,2013-06-25 05:44:00,
2013-06-25 01:52:00,69.0,66.0,-100.00,South,170,4.0,6.0,89,0.00,,,0.00,0.000000,,2013-06-25 05:52:00,
2013-06-25 02:01:00,69.0,66.0,-100.00,South,170,4.0,6.0,89,0.00,,,0.00,0.000000,,2013-06-25 06:01:00,
2013-06-25 02:34:00,68.0,66.0,-100.00,SSW,197,4.0,5.0,92,0.00,,,0.00,0.000000,,2013-06-25 06:34:00,
2013-06-25 02:43:00,68.0,66.0,-100.00,SSW,197,4.0,5.0,92,0.00,,,0.00,0.000000,,2013-06-25 06:43:00,
2013-06-25 02:52:00,68.0,66.0,-100.00,SSW,197,4.0,5.0,92,0.00,,,0.00,0.000000,,2013-06-25 06:52:00,
2013-06-25 03:02:00,68.0,66.0,-100.00,SSW,197,4.0,5.0,92,0.00,,,0.00,0.000000,,2013-06-25 07:02:00,
2013-06-25 03:33:00,67.0,65.0,-100.00,SW,228,4.0,6.0,93,0.00,,,0.00,0.000000,,2013-06-25 07:33:00,
2013-06-25 03:43:00,67.0,65.0,-100.00,SW,228,4.0,6.0,93,0.00,,,0.00,0.000000,,2013-06-25 07:43:00,
2013-06-25 03:52:00,67.0,65.0,-100.00,SW,228,4.0,6.0,93,0.00,,,0.00,0.000000,,2013-06-25 07:52:00,
2013-06-25 04:02:00,67.0,65.0,-100.00,SW,228,4.0,6.0,93,0.00,,,0.00,0.000000,,2013-06-25 08:02:00,
2013-06-25 04:34:00,67.0,66.0,-100.00,NE,38,0.0,5.0,95,0.00,,,0.00,0.000000,,2013-06-25 08:34:00,
2013-06-25 04:43:00,67.0,66.0,-100.00,NE,38,0.0,5.0,95,0.00,,,0.00,0.000000,,2013-06-25 08:43:00,
2013-06-25 04:53:00,67.0,66.0,-100.00,NE,38,0.0,5.0,95,0.00,,,0.00,0.000000,,2013-06-25 08:53:00,
2013-06-25 05:02:00,67.0,66.0,-100.00,NE,38,0.0,5.0,95,0.00,,,0.00,0.000000,,2013-06-25 09:02:00,
2013-06-25 05:33:00,67.0,66.0,-100.00,South,189,3.0,4.0,98,0.00,,,0.00,0.000000,,2013-06-25 09:33:00,
2013-06-25 05:43:00,67.0,66.0,-100.00,South,189,3.0,4.0,98,0.00,,,0.00,0.000000,,2013-06-25 09:43:00,
2013-06-25 05:53:00,67.0,66.0,-100.00,South,189,3.0,4.0,98,0.00,,,0.00,0.000000,,2013-06-25 09:53:00,
2013-06-25 06:01:00,67.0,66.0,-100.00,South,189,3.0,4.0,98,0.00,,,0.00,0.000000,,2013-06-25 10:01:00,
2013-06-25 06:33:00,68.0,67.0,-100.00,SSW,206,6.0,8.0,98,0.00,,,0.00,0.000000,,2013-06-25 10:33:00,
2013-06-25 06:43:00,68.0,67.0,-100.00,SSW,206,6.0,8.0,98,0.00,,,0.00,0.000000,,2013-06-25 10:43:00,
2013-06-25 06:52:00,68.0,67.0,-100.00,SSW,206,6.0,8.0,98,0.00,,,0.00,0.000000,,2013-06-25 10:52:00,
2013-06-25 07:02:00,68.0,67.0,-100.00,SSW,206,6.0,8.0,98,0.00,,,0.00,0.000000,,2013-06-25 11:02:00,
2013-06-25 07:34:00,68.0,67.0,-100.00,South,191,3.0,8.0,95,0.00,,,0.00,17.000000,,2013-06-25 11:34:00,
2013-06-25 07:43:00,68.0,67.0,-100.00,South,191,3.0,8.0,95,0.00,,,0.00,17.000000,,2013-06-25 11:43:00,
2013-06-25 07:52:00,68.0,67.0,-100.00,South,191,3.0,8.0,95,0.00,,,0.00,17.000000,,2013-06-25 11:52:00,
2013-06-25 08:02:00,68.0,67.0,-100.00,South,191,3.0,8.0,95,0.00,,,0.00,17.000000,,2013-06-25 12:02:00,
2013-06-25 08:33:00,70.0,68.0,-100.00,SSW,198,6.0,8.0,93,0.00,,,0.00,75.000000,,2013-06-25 12:33:00,
2013-06-25 08:43:00,70.0,68.0,-100.00,SSW,198,6.0,8.0,93,0.00,,,0.00,75.000000,,2013-06-25 12:43:00,
2013-06-25 08:55:00,70.0,68.0,-100.00,SSW,198,6.0,8.0,93,0.00,,,0.00,75.000000,,2013-06-25 12:55:00,
2013-06-25 09:02:00,70.0,68.0,-100.00,SSW,198,6.0,8.0,93,0.00,,,0.00,75.000000,,2013-06-25 13:02:00,
2013-06-25 09:34:00,74.0,70.0,-100.00,West,263,3.0,7.0,86,0.00,,,0.00,217.000000,,2013-06-25 13:34:00,
2013-06-25 09:42:00,74.0,70.0,-100.00,West,263,3.0,7.0,86,0.00,,,0.00,217.000000,,2013-06-25 13:42:00,
2013-06-25 09:53:00,74.0,70.0,-100.00,West,263,3.0,7.0,86,0.00,,,0.00,217.000000,,2013-06-25 13:53:00,
2013-06-25 10:02:00,74.0,70.0,-100.00,West,263,3.0,7.0,86,0.00,,,0.00,217.000000,,2013-06-25 14:02:00,
2013-06-25 10:34:00,76.0,70.0,-100.00,WNW,289,3.0,6.0,81,0.00,,,0.00,363.000000,,2013-06-25 14:34:00,
2013-06-25 10:43:00,76.0,70.0,-100.00,WNW,289,3.0,6.0,81,0.00,,,0.00,363.000000,,2013-06-25 14:43:00,
2013-06-25 10:53:00,76.0,70.0,-100.00,WNW,289,3.0,6.0,81,0.00,,,0.00,363.000000,,2013-06-25 14:53:00,
2013-06-25 11:02:00,76.0,70.0,-100.00,WNW,289,3.0,6.0,81,0.00,,,0.00,363.000000,,2013-06-25 15:02:00,
2013-06-25 11:03:00,81.0,69.0,-100.00,WNW,298,5.0,7.0,68,0.00,,,0.00,573.000000,,2013-06-25 15:03:00,
2013-06-25 11:32:00,81.0,69.0,-100.00,WNW,298,5.0,7.0,68,0.00,,,0.00,573.000000,,2013-06-25 15:32:00,
2013-06-25 11:44:00,81.0,69.0,-100.00,WNW,298,5.0,7.0,68,0.00,,,0.00,573.000000,,2013-06-25 15:44:00,
2013-06-25 11:53:00,81.0,69.0,-100.00,WNW,298,5.0,7.0,68,0.00,,,0.00,573.000000,,2013-06-25 15:53:00,
2013-06-25 12:44:00,85.0,63.0,-100.00,West,275,4.0,9.0,48,0.00,,,0.00,870.000000,,2013-06-25 16:44:00,
2013-06-25 12:52:00,85.0,63.0,-100.00,West,275,4.0,9.0,48,0.00,,,0.00,870.000000,,2013-06-25 16:52:00,
2013-06-25 13:01:00,85.0,63.0,-100.00,West,275,4.0,9.0,48,0.00,,,0.00,870.000000,,2013-06-25 17:01:00,
2013-06-25 13:34:00,87.0,58.0,-100.00,WSW,239,8.0,13.0,37,0.00,,,0.00,898.000000,,2013-06-25 17:34:00,
2013-06-25 13:44:00,87.0,58.0,-100.00,WSW,239,8.0,13.0,37,0.00,,,0.00,898.000000,,2013-06-25 17:44:00,
2013-06-25 13:53:00,87.0,58.0,-100.00,WSW,239,8.0,13.0,37,0.00,,,0.00,898.000000,,2013-06-25 17:53:00,
2013-06-25 14:45:00,87.0,68.0,-100.00,WSW,237,10.0,13.0,54,-99.99,,,0.00,1064.000000,,2013-06-25 18:45:00,
2013-06-25 14:53:00,87.0,68.0,-100.00,WSW,237,10.0,13.0,54,-99.99,,,0.00,1064.000000,,2013-06-25 18:53:00,
2013-06-25 15:01:00,87.0,68.0,-100.00,WSW,237,10.0,13.0,54,-99.99,,,0.00,1064.000000,,2013-06-25 19:01:00,
2013-06-25 15:33:00,87.0,60.0,-100.00,SW,232,9.0,15.0,41,0.00,,,0.00,1051.000000,,2013-06-25 19:33:00,
2013-06-25 15:44:00,87.0,60.0,-100.00,SW,232,9.0,15.0,41,0.00,,,0.00,1051.000000,,2013-06-25 19:44:00,
2013-06-25 15:54:00,87.0,60.0,-100.00,SW,232,9.0,15.0,41,0.00,,,0.00,1051.000000,,2013-06-25 19:54:00,
2013-06-25 16:33:00,86.0,65.0,-100.00,SW,227,10.0,17.0,50,0.00,,,0.00,924.000000,,2013-06-25 20:33:00,
2013-06-25 16:43:00,86.0,65.0,-100.00,SW,227,10.0,17.0,50,0.00,,,0.00,924.000000,,2013-06-25 20:43:00,
2013-06-25 16:52:00,86.0,65.0,-100.00,SW,227,10.0,17.0,50,0.00,,,0.00,924.000000,,2013-06-25 20:52:00,
2013-06-25 17:01:00,86.0,65.0,-100.00,SW,227,10.0,17.0,50,0.00,,,0.00,924.000000,,2013-06-25 21:01:00,
2013-06-25 17:34:00,85.0,58.0,-100.00,SSW,206,12.0,17.0,40,0.00,,,0.00,785.000000,,2013-06-25 21:34:00,
2013-06-25 17:43:00,85.0,58.0,-100.00,SSW,206,12.0,17.0,40,0.00,,,0.00,785.000000,,2013-06-25 21:43:00,
2013-06-25 17:53:00,85.0,58.0,-100.00,SSW,206,12.0,17.0,40,0.00,,,0.00,785.000000,,2013-06-25 21:53:00,
2013-06-25 18:01:00,85.0,58.0,-100.00,SSW,206,12.0,17.0,40,0.00,,,0.00,785.000000,,2013-06-25 22:01:00,
2013-06-25 18:34:00,81.0,66.0,-100.00,SSW,205,12.0,17.0,60,0.00,,,0.00,540.000000,,2013-06-25 22:34:00,
2013-06-25 18:42:00,81.0,66.0,-100.00,SSW,205,12.0,17.0,60,0.00,,,0.00,540.000000,,2013-06-25 22:42:00,
2013-06-25 18:52:00,81.0,66.0,-100.00,SSW,205,12.0,17.0,60,0.00,,,0.00,540.000000,,2013-06-25 22:52:00,
2013-06-25 19:01:00,81.0,66.0,-100.00,SSW,205,12.0,17.0,60,0.00,,,0.00,540.000000,,2013-06-25 23:01:00,
2013-06-25 19:34:00,78.0,63.0,-100.00,SSW,195,9.0,15.0,60,0.00,,,0.00,294.000000,,2013-06-25 23:34:00,
2013-06-25 19:44:00,78.0,63.0,-100.00,SSW,195,9.0,15.0,60,0.00,,,0.00,294.000000,,2013-06-25 23:44:00,
2013-06-25 19:52:00,78.0,63.0,-100.00,SSW,195,9.0,15.0,60,0.00,,,0.00,294.000000,,2013-06-25 23:52:00,
2013-06-25 20:02:00,78.0,63.0,-100.00,SSW,195,9.0,15.0,60,0.00,,,0.00,294.000000,,2013-06-26 00:02:00,
2013-06-25 20:22:00,77.0,63.0,-100.00,SSW,203,8.0,13.0,62,0.00,,,0.00,181.000000,,2013-06-26 00:22:00,
2013-06-25 20:33:00,77.0,63.0,-100.00,SSW,203,8.0,13.0,62,0.00,,,0.00,181.000000,,2013-06-26 00:33:00,
2013-06-25 20:42:00,77.0,63.0,-100.00,SSW,203,8.0,13.0,62,0.00,,,0.00,181.000000,,2013-06-26 00:42:00,
2013-06-25 20:53:00,77.0,63.0,-100.00,SSW,203,8.0,13.0,62,0.00,,,0.00,181.000000,,2013-06-26 00:53:00,
2013-06-25 21:01:00,77.0,63.0,-100.00,SSW,203,8.0,13.0,62,0.00,,,0.00,181.000000,,2013-06-26 01:01:00,
2013-06-25 21:22:00,75.0,64.0,-100.00,South,172,4.0,11.0,69,0.00,,,0.00,92.000000,,2013-06-26 01:22:00,
2013-06-25 21:33:00,75.0,64.0,-100.00,South,172,4.0,11.0,69,0.00,,,0.00,92.000000,,2013-06-26 01:33:00,
2013-06-25 21:43:00,75.0,64.0,-100.00,South,172,4.0,11.0,69,0.00,,,0.00,92.000000,,2013-06-26 01:43:00,
2013-06-25 21:53:00,75.0,64.0,-100.00,South,172,4.0,11.0,69,0.00,,,0.00,92.000000,,2013-06-26 01:53:00,
2013-06-25 22:02:00,75.0,64.0,-100.00,South,172,4.0,11.0,69,0.00,,,0.00,92.000000,,2013-06-26 02:02:00,
2013-06-25 22:34:00,72.0,64.0,-100.00,South,173,4.0,7.0,76,0.00,,,0.00,21.000000,,2013-06-26 02:34:00,
2013-06-25 22:43:00,72.0,64.0,-100.00,South,173,4.0,7.0,76,0.00,,,0.00,21.000000,,2013-06-26 02:43:00,
2013-06-25 22:53:00,72.0,64.0,-100.00,South,173,4.0,7.0,76,0.00,,,0.00,21.000000,,2013-06-26 02:53:00,
2013-06-25 23:02:00,72.0,64.0,-100.00,South,173,4.0,7.0,76,0.00,,,0.00,21.000000,,2013-06-26 03:02:00,
2013-06-25 23:33:00,69.0,64.0,-100.00,SE,144,3.0,6.0,84,0.00,,,0.00,0.000000,,2013-06-26 03:33:00,
2013-06-25 23:43:00,69.0,64.0,-100.00,SE,144,3.0,6.0,84,0.00,,,0.00,0.000000,,2013-06-26 03:43:00,
2013-06-25 23:52:00,69.0,64.0,-100.00,SE,144,3.0,6.0,84,0.00,,,0.00,0.000000,,2013-06-26 03:52:00,